Location: Kelowna
(49.8880°N, 119.4960°W)
Time: 16:54:51
(UTC-07:00)

AO-27 - Pass Details

Date: 14 August 2024
Orbit: 783 x 796 km, 98.8° (Epoch: 14 September)

Event Time Altitude Azimuth Distance (km) Brightness Sun altitude
Exits shadow 22:25:53 - 201° (SSW) 2,789 10.2 -17.6°
Reaches altitude 10° 22:27:09 10° 208° (SSW) 2,358 9.9 -17.7°
Maximum altitude 22:31:34 28° 266° (W) 1,475 9.4 -18.1°
Drops below altitude 10° 22:36:02 10° 325° (NW) 2,377 11.4 -18.6°
Sets 22:38:43 0° 337° (NNW) 3,313 12.4 -18.8°
